Overview Statistics Trail Chart Weather Telemetry Raw packets
 

This is the latest recevied weather packets stored in our database for station/object 4S6DRJ-13. If no packets are shown the sender has not sent any weather packets the latest 10 day(s).

<< 66 67 68 69 70 71 72 >>
Time Temp. Humidity Pressure Rain* Wind** Luminosity Snow
1788352022 28.89° C 82% 1008.1 hPa 0 mm 1.79 m/s, 250° 34 W/m² -
1788351962 28.89° C 82% 1008.1 hPa 0 mm 1.34 m/s, 297° 34 W/m² -
1788351900 28.89° C 82% 1008.2 hPa 0 mm 1.79 m/s, 238° 36 W/m² -
1788351839 28.89° C 82% 1008 hPa 0 mm 0.89 m/s, 195° 40 W/m² -
1788351789 28.89° C 82% 1008.1 hPa 0 mm 1.34 m/s, 241° 42 W/m² -
1788351717 28.89° C 82% 1008 hPa 0 mm 0.89 m/s, 292° 44 W/m² -
1788351656 28.89° C 82% 1008.1 hPa 0 mm 1.79 m/s, 216° 46 W/m² -
1788351595 28.89° C 82% 1008.3 hPa 0 mm 0.89 m/s, 234° 47 W/m² -
1788351534 28.89° C 82% 1008.1 hPa 0 mm 0.89 m/s, 304° 50 W/m² -
1788351473 28.89° C 82% 1008.1 hPa 0 mm 0.45 m/s, 229° 50 W/m² -
1788351412 28.89° C 82% 1008.1 hPa 0 mm 0.45 m/s, 237° 49 W/m² -
1788351351 28.89° C 82% 1008.1 hPa 0 mm 0.45 m/s, 277° 48 W/m² -
1788351290 28.89° C 82% 1008 hPa 0 mm 0.89 m/s, 234° 50 W/m² -
1788351229 28.89° C 82% 1008.1 hPa 0 mm 1.34 m/s, 233° 53 W/m² -
1788351168 28.89° C 82% 1007.9 hPa 0 mm 0.45 m/s, 224° 56 W/m² -
1788351107 28.89° C 82% 1007.9 hPa 0 mm 1.34 m/s, 221° 64 W/m² -
1788351046 28.89° C 83% 1008.1 hPa 0 mm 0.45 m/s, 217° 80 W/m² -
1788350985 28.89° C 83% 1008.1 hPa 0.76 mm 0.89 m/s, 245° 80 W/m² -
1788350925 28.89° C 83% 1008 hPa 0.76 mm 0.89 m/s, 233° 72 W/m² -
1788350863 28.89° C 83% 1007.9 hPa 0.76 mm 0.89 m/s, 213° 70 W/m² -
1788350802 28.89° C 83% 1008.2 hPa 0.76 mm 0.45 m/s, 232° 67 W/m² -
1788350741 28.89° C 84% 1008 hPa 0.76 mm 0 m/s 67 W/m² -
1788350680 28.33° C 83% 1008 hPa 0.76 mm 0 m/s 74 W/m² -
1788350619 28.33° C 83% 1008 hPa 0.76 mm 0.45 m/s, 267° 72 W/m² -
1788350558 28.33° C 83% 1008.1 hPa 0.76 mm 0.45 m/s, 213° 72 W/m² -

* Rain latest hour (hover to see other rain measurements)
** Current wind speed in m/s (hover to see current wind gust speed)